Las Vegas, NV

5:31 AM PDT on June 20, 2018 (GMT -0700)
McCarran International

Weather History for KLAS - February, 2014

Change the Weather History Date:

Saturday, February 15, 2014

  Actual Average Record
Temperature  
Mean Temperature 60 °F 53 °F  
Max Temperature 69 °F 62 °F 79 °F (2015)
Min Temperature 50 °F 43 °F 22 °F (1949)
Degree Days  
Heating Degree Days 5 12  
Month to date heating degree days 176 203  
Since 1 July heating degree days 1340 1555  
Cooling Degree Days 0 0  
Month to date cooling degree days 0 0  
Year to date cooling degree days 0 0  
Growing Degree Days 10 (Base 50)    
Moisture  
Dew Point 27 °F    
Average Humidity 29    
Maximum Humidity 38    
Minimum Humidity 19    
Precipitation  
Precipitation 0.00 in 0.03 in 0.35 in (1973)
Month to date precipitation T 0.36  
Year to date precipitation T 0.90  
Snow  
Snow 0.00 in 0.00 in T in (1975)
Month to date snowfall 0.0 0.0  
Since 1 July snowfall 0.0 0.2  
Snow Depth 0.00 in    
Sea Level Pressure  
Sea Level Pressure 29.94 in    
Wind  
Wind Speed 5 mph (SSW)    
Max Wind Speed 13 mph    
Max Gust Speed 14 mph    
Visibility 10 miles    
Events      
T = Trace of Precipitation, MM = Missing Value Source: NWS Daily Summary

Daily Weather History Graph

Daily Weather History Graph

Search for Another Location

Airport or City:

Astronomy

Feb. 15, 2014 Rise Set
Actual Time 6:27 AM PST 5:22 PM PST
Civil Twilight 6:01 AM PST 5:48 PM PST
Nautical Twilight 5:31 AM PST 6:18 PM PST
Astronomical Twilight 5:01 AM PST 6:48 PM PST
Moon 6:22 PM PST (2/15) 6:31 AM PST (2/15)
Length of Visible Light 11h 46m
Length of Day
10h 54m
Full, 99% of the Moon is Illuminated
Feb 15
Full
Feb 22
Last Quarter
Mar 1
New
Mar 8
First Quarter
Mar 16
Full

Hourly Weather History & Observations

Time (PST) Temp. Dew Point Humidity Pressure Visibility Wind Dir Wind Speed Gust Speed Precip Events Conditions
12:56 AM 53.1 °F 27.0 °F 37% 29.95 in 10.0 mi SSW 6.9 mph - N/A   Scattered Clouds
1:56 AM 54.0 °F 27.0 °F 35% 29.95 in 10.0 mi SSW 8.1 mph - N/A   Scattered Clouds
2:56 AM 52.0 °F 27.0 °F 38% 29.94 in 10.0 mi SSW 8.1 mph - N/A   Mostly Cloudy
3:56 AM 52.0 °F 26.1 °F 37% 29.94 in 10.0 mi South 6.9 mph - N/A   Mostly Cloudy
4:56 AM 52.0 °F 27.0 °F 38% 29.94 in 10.0 mi SSW 6.9 mph - N/A   Mostly Cloudy
5:56 AM 51.1 °F 26.1 °F 38% 29.95 in 10.0 mi SSW 8.1 mph - N/A   Mostly Cloudy
6:56 AM 51.1 °F 26.1 °F 38% 29.98 in 10.0 mi WSW 4.6 mph - N/A   Mostly Cloudy
7:56 AM 54.0 °F 27.0 °F 35% 30.01 in 10.0 mi SSW 6.9 mph - N/A   Overcast
8:56 AM 59.0 °F 27.0 °F 29% 30.03 in 10.0 mi South 6.9 mph - N/A   Overcast
9:56 AM 62.1 °F 27.0 °F 26% 30.02 in 10.0 mi South 6.9 mph - N/A   Overcast
10:56 AM 66.0 °F 25.0 °F 21% 30.01 in 10.0 mi SSE 4.6 mph - N/A   Overcast
11:56 AM 68.0 °F 25.0 °F 20% 29.98 in 10.0 mi Calm Calm - N/A   Overcast
12:56 PM 69.1 °F 27.0 °F 21% 29.94 in 10.0 mi East 3.5 mph - N/A   Overcast
1:56 PM 68.0 °F 25.0 °F 20% 29.92 in 10.0 mi Calm Calm - N/A   Overcast
2:56 PM 68.0 °F 26.1 °F 21% 29.91 in 10.0 mi SSE 4.6 mph - N/A   Overcast
3:56 PM 68.0 °F 26.1 °F 21% 29.90 in 10.0 mi Calm Calm - N/A   Overcast
4:56 PM 64.9 °F 26.1 °F 23% 29.91 in 10.0 mi NNW 3.5 mph - N/A   Overcast
5:56 PM 63.0 °F 26.1 °F 25% 29.90 in 10.0 mi Calm Calm - N/A   Overcast
6:56 PM 62.1 °F 28.0 °F 28% 29.90 in 10.0 mi SW 4.6 mph - N/A   Overcast
7:56 PM 60.1 °F 28.9 °F 31% 29.90 in 10.0 mi SSW 5.8 mph - N/A   Overcast
8:56 PM 57.9 °F 28.0 °F 32% 29.90 in 10.0 mi SSW 9.2 mph - N/A   Mostly Cloudy
9:56 PM 55.9 °F 28.0 °F 34% 29.89 in 10.0 mi SSW 6.9 mph - N/A   Mostly Cloudy
10:56 PM 55.0 °F 27.0 °F 34% 29.87 in 10.0 mi SW 6.9 mph - N/A   Mostly Cloudy
11:56 PM 53.1 °F 27.0 °F 37% 29.85 in 10.0 mi South 8.1 mph - N/A   Scattered Clouds